Location: Newark
(34.1333°N, 7.9667°W)
Time: 06:23:25
(UTC+00:00)

Transit 2A - Pass Details

Date: 14 June 2021
Orbit: 598 x 960 km, 66.7° (Epoch: 01 August)

Event Time Altitude Azimuth Distance (km) Brightness Sun altitude
Rises 04:07:06 0° 326° (NW) 3,105 9.2 -13.2°
Reaches altitude 10° 04:09:25 10° 320° (NW) 2,236 8.4 -12.8°
Maximum altitude 04:14:19 47° 248° (WSW) 1,033 6.3 -12.0°
Drops below altitude 10° 04:19:42 10° 175° (S) 2,459 8.3 -11.2°
Sets 04:22:22 0° 170° (S) 3,447 9.1 -10.7°
